Home   Weather   Vaasa   Past weeks

Flag for Finland Past Weather in Vaasa, Finland — Yesterday and Last 2 Weeks

Now
39 °F

Passing clouds.


Feels Like: 32 °F
Forecast: 25 / 34 °F
Wind: 12 mph from West

Location: Vaasa Airport

Current Time: Jan 23, 2017 at 12:47:24 am

Latest Report: Jan 22, 2017 at 11:50 pm


Visibility: N/A

Pressure: 29.80 "Hg

Humidity: 75%

Dew Point: 32 °F

Location of VaasaLocation

Past Weather in Vaasa — Graph

°F

Vaasa Temperature Yesterday

Maximum temperature yesterday: 41 °F (at 9:20 pm)
Minimum temperature yesterday: 36 °F (at 12:20 am)
Average temperature yesterday: 39 °F

High & Low Weather Summary for the Past Weeks

 TemperatureHumidityPressure
High43 °F (Jan 19, 2:50 pm)100% (Jan 8, 3:20 am)30.30 "Hg (Jan 8, 3:20 am)
Low7 °F (Jan 14, 10:50 pm)44% (Jan 19, 9:20 pm)28.82 "Hg (Jan 12, 11:50 am)
Average30 °F86%29.72 "Hg
* Reported Jan 7 11:20 pm — Jan 22 11:20 pm, Vaasa, Weather by CustomWeather, © 2017

Note: Actual official high and low records may vary slightly from our data, if they occured in-between our weather recording intervals... More about our weather records

Advertising

Vaasa Weather History for the Previous 24 Hours

Scroll right to see more
 ConditionsComfort  
Time TempWeatherWind HumidityBarometerVisibility
11:20 pm
Sun, Jan 22
39 °FPassing clouds.12 mph75%29.80 "HgN/A
10:50 pm39 °FPassing clouds.12 mph75%29.80 "HgN/A
10:20 pm39 °FClear.7 mph75%29.83 "Hg10 mi
9:50 pm39 °FClear.9 mph75%29.83 "Hg10 mi
9:20 pm41 °FPassing clouds.9 mph70%29.83 "HgN/A
8:50 pm39 °FPassing clouds.9 mph75%29.83 "HgN/A
8:20 pm39 °FPassing clouds.8 mph75%29.83 "HgN/A
7:50 pm39 °FPassing clouds.7 mph75%29.86 "HgN/A
7:20 pm37 °FPassing clouds.6 mph81%29.86 "HgN/A
6:50 pm37 °FClear.7 mph81%29.86 "Hg10 mi
6:20 pm37 °FPassing clouds.7 mph81%29.86 "HgN/A
5:50 pm37 °FPassing clouds.6 mph81%29.86 "HgN/A
5:20 pm37 °FPassing clouds.7 mph81%29.89 "HgN/A
4:50 pm37 °FClear.8 mph81%29.89 "Hg10 mi
4:20 pm37 °FPassing clouds.7 mph81%29.89 "HgN/A
3:50 pm37 °FPassing clouds.8 mph81%29.89 "HgN/A
3:20 pm37 °FPassing clouds.7 mph81%29.89 "HgN/A
2:50 pm39 °FSunny.9 mph75%29.92 "Hg10 mi
2:20 pm39 °FPassing clouds.8 mph75%29.92 "HgN/A
1:50 pm39 °FSunny.10 mph75%29.92 "Hg10 mi
1:20 pm37 °FPassing clouds.8 mph81%29.92 "HgN/A
12:50 pm39 °FPassing clouds.7 mph75%29.92 "HgN/A
12:20 pm39 °FPassing clouds.9 mph75%29.92 "HgN/A
11:50 am39 °FScattered clouds.10 mph75%29.92 "HgN/A
11:20 am39 °FPassing clouds.9 mph81%29.95 "HgN/A
10:50 am39 °FPartly sunny.9 mph75%29.95 "HgN/A
10:20 am39 °FSunny.10 mph81%29.95 "Hg10 mi
9:50 am39 °FPassing clouds.9 mph81%29.95 "HgN/A
9:20 am39 °FPassing clouds.9 mph81%29.95 "HgN/A
8:50 am39 °FPassing clouds.7 mph81%29.95 "HgN/A
8:20 am39 °FOvercast.10 mph81%29.98 "HgN/A
7:50 am39 °FOvercast.10 mph81%29.98 "HgN/A
7:20 am39 °FPartly cloudy.10 mph81%29.98 "HgN/A
6:50 am39 °FOvercast.9 mph81%29.98 "HgN/A
6:20 am39 °FPartly cloudy.8 mph81%29.98 "HgN/A
5:50 am39 °FPassing clouds.10 mph81%29.98 "HgN/A
5:20 am39 °FClear.9 mph81%29.98 "Hg10 mi
4:50 am39 °FClear.9 mph81%29.98 "Hg10 mi
4:20 am39 °FPassing clouds.8 mph81%29.98 "HgN/A
3:50 am39 °FPassing clouds.10 mph81%30.01 "HgN/A
3:20 am39 °FPassing clouds.10 mph81%30.01 "HgN/A
2:50 am39 °FPassing clouds.8 mph81%30.01 "HgN/A
2:20 am39 °FPassing clouds.10 mph81%30.01 "HgN/A
1:50 am39 °FPassing clouds.12 mph81%30.01 "HgN/A
1:20 am39 °FOvercast.12 mph81%30.01 "HgN/A
12:50 am39 °FPassing clouds.12 mph81%30.01 "HgN/A
12:20 am36 °FPassing clouds.8 mph93%30.01 "HgN/A
Weather by CustomWeather, © 2017

See weather overviewHow to use our weather pages